N920LG EDDE-EDDE

Flight info

Callsign N920LG
Flight time 0h 9m
Altitude 2000
Route VFR
Aircraft BE36/L-SDE2E3FGHIJ1LORVWXY/LB1

Departure

Time 2026-04-28 13:18
Airport Erfurt-Weimar Airport (EDDE)

Arrival

Time 2026-04-28 13:27
Airport Erfurt-Weimar Airport (EDDE)
Time Latitude Longitude Altitude Speed Heading
2026-04-28 13:10 50.97664 10.96331 1020 ft 0 kts 277°
2026-04-28 13:15 50.97671 10.96271 1020 ft 14 kts 290°
2026-04-28 13:15 50.97744 10.96091 1021 ft 33 kts 277°
2026-04-28 13:16 50.97770 10.95727 1022 ft 28 kts 274°
2026-04-28 13:16 50.97796 10.95436 1022 ft 26 kts 279°
2026-04-28 13:16 50.97889 10.95363 1023 ft 12 kts
2026-04-28 13:16 50.97927 10.95370 1023 ft 0 kts
2026-04-28 13:17 50.97955 10.95377 1023 ft 10 kts
2026-04-28 13:17 50.98013 10.95420 1023 ft 16 kts 91°
2026-04-28 13:17 50.97971 10.95956 1020 ft 87 kts 97°
2026-04-28 13:17 50.97882 10.97071 1246 ft 109 kts 101°
2026-04-28 13:18 50.98000 10.98031 1688 ft 105 kts 31°
2026-04-28 13:18 50.98804 10.98107 1726 ft 134 kts 333°
2026-04-28 13:18 50.99242 10.96868 1771 ft 129 kts 281°
2026-04-28 13:18 50.99494 10.95526 1704 ft 126 kts 288°
2026-04-28 13:19 50.99756 10.94232 1653 ft 123 kts 282°
2026-04-28 13:19 50.99506 10.93113 1420 ft 117 kts 208°
2026-04-28 13:19 50.98884 10.92629 1521 ft 81 kts 200°
2026-04-28 13:19 50.98366 10.92638 1356 ft 83 kts 149°
2026-04-28 13:20 50.98172 10.93461 1158 ft 84 kts 92°
2026-04-28 13:20 50.98104 10.94301 1028 ft 68 kts 100°
2026-04-28 13:20 50.98046 10.94980 1026 ft 78 kts 97°
2026-04-28 13:20 50.97966 10.95987 1179 ft 73 kts 97°
2026-04-28 13:21 50.97932 10.96930 1426 ft 102 kts 92°
2026-04-28 13:21 50.97759 10.97826 1719 ft 99 kts 153°
2026-04-28 13:21 50.97030 10.98266 1741 ft 119 kts 156°
2026-04-28 13:21 50.96457 10.97990 1687 ft 104 kts 250°
2026-04-28 13:22 50.96287 10.96810 1750 ft 116 kts 255°
2026-04-28 13:22 50.96091 10.95510 1773 ft 124 kts 263°
2026-04-28 13:22 50.96076 10.94145 1831 ft 127 kts 272°
2026-04-28 13:22 50.96300 10.92761 1694 ft 134 kts 303°
2026-04-28 13:23 50.97066 10.92012 1677 ft 132 kts 345°
2026-04-28 13:23 50.97946 10.92210 1542 ft 131 kts 38°
2026-04-28 13:23 50.98194 10.93310 1171 ft 91 kts 102°
2026-04-28 13:23 50.98117 10.94181 1042 ft 69 kts 99°
2026-04-28 13:24 50.98061 10.94808 1026 ft 61 kts 99°
2026-04-28 13:24 50.97983 10.95779 1019 ft 108 kts 103°
2026-04-28 13:24 50.97950 10.96644 1423 ft 90 kts 92°
2026-04-28 13:24 50.97812 10.97602 1631 ft 96 kts 102°
2026-04-28 13:25 50.97968 10.98516 1666 ft 100 kts 327°
2026-04-28 13:25 50.98570 10.98262 1660 ft 96 kts 352°
2026-04-28 13:25 50.98880 10.97308 1755 ft 113 kts 284°
2026-04-28 13:25 50.99146 10.95986 1709 ft 135 kts 289°
2026-04-28 13:26 50.99411 10.94660 1882 ft 82 kts 273°
2026-04-28 13:26 50.99120 10.94095 1649 ft 86 kts 194°
2026-04-28 13:26 50.98585 10.93750 1380 ft 81 kts 210°
2026-04-28 13:26 50.98144 10.93909 1104 ft 72 kts 103°
2026-04-28 13:27 50.98084 10.94550 1025 ft 45 kts 100°
2026-04-28 13:27 50.98027 10.95263 1024 ft 91 kts 99°
2026-04-28 13:27 50.97947 10.96417 1045 ft 123 kts 99°
2026-04-28 13:27 50.97785 10.97605 1529 ft 86 kts 132°
2026-04-28 13:28 50.97220 10.97718 1721 ft 89 kts 193°
2026-04-28 13:28 50.96631 10.97123 1720 ft 121 kts 252°
2026-04-28 13:28 50.96532 10.95731 1752 ft 133 kts 263°
2026-04-28 13:28 50.96496 10.94207 1666 ft 139 kts 280°
2026-04-28 13:29 50.97025 10.93104 1579 ft 124 kts 333°
2026-04-28 13:29 50.97806 10.92929 1539 ft 100 kts
2026-04-28 13:29 50.98152 10.93707 1136 ft 94 kts 99°
2026-04-28 13:29 50.98085 10.94553 1025 ft 59 kts 98°
2026-04-28 13:30 50.98017 10.95326 1023 ft 97 kts 96°
2026-04-28 13:30 50.97951 10.96412 1201 ft 114 kts 99°
2026-04-28 13:30 50.97928 10.97610 1457 ft 108 kts 60°
2026-04-28 13:30 50.98616 10.98137 1596 ft 123 kts 355°
2026-04-28 13:31 50.99371 10.95947 1774 ft 133 kts 266°
2026-04-28 13:31 50.99340 10.94541 1734 ft 115 kts 273°
2026-04-28 13:31 50.99374 10.93391 1699 ft 92 kts 250°
2026-04-28 13:32 50.98863 10.93101 1512 ft 94 kts 169°
2026-04-28 13:32 50.98255 10.93397 1250 ft 81 kts 155°
2026-04-28 13:32 50.98083 10.93856 1061 ft 39 kts 189°
2026-04-28 13:32 50.98035 10.93921 1024 ft 0 kts 71°
2026-04-28 13:33 50.98092 10.94950 1329 ft 98 kts 82°
2026-04-28 13:33 50.98124 10.95985 1435 ft 98 kts 42°
2026-04-28 13:33 50.98685 10.96580 1708 ft 102 kts
2026-04-28 13:33 50.99062 10.95656 1706 ft 121 kts 283°
2026-04-28 13:34 50.99264 10.94345 1764 ft 122 kts 279°
2026-04-28 13:34 50.98864 10.93719 1576 ft 92 kts 181°
2026-04-28 13:34 50.98246 10.93724 1202 ft 81 kts 143°
2026-04-28 13:34 50.98099 10.94442 1025 ft 54 kts 96°
2026-04-28 13:35 50.98052 10.94914 1026 ft 41 kts 98°
2026-04-28 13:35 50.98005 10.95358 1023 ft 22 kts 131°
2026-04-28 13:35 50.97878 10.95359 1023 ft 12 kts 191°
2026-04-28 13:35 50.97808 10.95385 1022 ft 26 kts 122°
2026-04-28 13:36 50.97767 10.95809 1021 ft 38 kts 98°
2026-04-28 13:36 50.97735 10.96225 1020 ft 41 kts 97°
2026-04-28 13:36 50.97704 10.96613 1019 ft 35 kts 97°
2026-04-28 13:36 50.97667 10.96802 1019 ft 0 kts 174°
2026-04-28 13:37 50.97604 10.96781 1019 ft 16 kts 218°
2026-04-28 13:37 50.97599 10.96691 1019 ft 0 kts 277°